Home > Weather > Bogota > Past weeks

Flag for Colombia Past Weather in Bogota, Colombia — Yesterday and Last 2 Weeks

Now
59 °F

Scattered showers. Scattered clouds.


Feels Like: 58 °F
Forecast: 45 / 65 °F
Wind: 6 mph from East

Location: Bogota / Eldorado

Current Time: Jun 30, 2016 at 9:15:35 AM

Latest Report: Jun 30, 2016 at 8:00 AM


Visibility: N/A

Pressure: 30.35 "Hg (22.25 "Hg at 2618m altitude)

Humidity: 72%

Dew Point: 50 °F

Location of BogotaLocation

Past Weather in Bogota — Graph

°F

Bogota Temperature Yesterday

Maximum temperature yesterday: 64 °F (at 12:00 PM)
Minimum temperature yesterday: 52 °F (at 12:00 AM)
Average temperature yesterday: 58 °F

High & Low Weather Summary for the Past Weeks

 TemperatureHumidityPressure
High68 °F (Jun 23, 2:00 PM)94% (Jun 20, 5:00 AM)30.49 "Hg (Jun 20, 5:00 AM)
Low46 °F (Jun 22, 6:00 AM)43% (Jun 17, 3:00 PM)30.26 "Hg (Jun 25, 3:00 PM)
Average57 °F71%30.36 "Hg
* Reported Jun 15 8:00 AM — Jun 30 8:00 AM, Bogota, Weather by CustomWeather, © 2016

Note: Actual official high and low records may vary slightly from our data, if they occured in-between our weather recording intervals... More about our weather records

Advertising

Bogota Weather History for the Previous 24 Hours

Scroll right to see more
 ConditionsComfort  
Time TempWeatherWind HumidityBarometerVisibility
8:00 AM
Thu, Jun 30
59 °FScattered showers. Scattered clouds.6 mph72%30.35 "HgN/A
7:00 AM55 °FScattered clouds.7 mph88%30.34 "HgN/A
6:00 AM50 °FScattered showers. Scattered clouds.3 mph94%30.32 "HgN/A
5:00 AM50 °FScattered showers. Passing clouds.3 mph94%30.32 "HgN/A
4:00 AM50 °FScattered showers. Passing clouds.3 mph94%30.32 "HgN/A
3:00 AM52 °FThunderstorms. Overcast.N/A94%30.32 "HgN/A
2:00 AM54 °FThunderstorms. Overcast.N/A94%30.35 "HgN/A
1:00 AM54 °FScattered showers. Passing clouds.2 mph94%30.36 "Hg5 mi
12:00 AM54 °FScattered showers. Passing clouds.5 mph94%30.38 "Hg5 mi
11:00 PM
Wed, Jun 29
55 °FPassing clouds.6 mph88%30.40 "Hg4 mi
10:00 PM57 °FPassing clouds.6 mph77%30.40 "Hg5 mi
9:03 PM57 °FPassing clouds.9 mph72%30.40 "HgN/A
9:00 PM57 °FScattered showers. Passing clouds.2 mph72%30.39 "HgN/A
8:00 PM59 °FScattered showers. Passing clouds.5 mph63%30.35 "HgN/A
7:00 PM61 °FScattered showers. Passing clouds.8 mph59%30.34 "HgN/A
6:00 PM63 °FScattered showers. Partly sunny.7 mph52%30.30 "HgN/A
5:00 PM64 °FPartly sunny.8 mph49%30.29 "HgN/A
4:00 PM64 °FBroken clouds.8 mph52%30.29 "HgN/A
3:00 PM64 °FScattered showers. Scattered clouds.8 mph52%30.30 "HgN/A
2:00 PM63 °FScattered showers. Broken clouds.12 mph52%30.32 "HgN/A
1:00 PM63 °FScattered showers. Broken clouds.13 mph52%30.34 "HgN/A
12:00 PM64 °FScattered showers. Broken clouds.17 mph49%30.36 "HgN/A
11:00 AM61 °FScattered showers. Broken clouds.17 mph59%30.38 "HgN/A
10:00 AM61 °FScattered showers. Broken clouds.17 mph63%30.38 "HgN/A
9:00 AM57 °FScattered showers. Partly sunny.16 mph72%30.38 "HgN/A
Weather by CustomWeather, © 2016

See weather overviewHow to use our weather pages